Preview of NWS' New Version of Forecast
This preview is not operational and should not be used for support decisions.
Latest weather observations around

Hawthorne, Hawthorne Municipal Airport (KHHR)

Using International System of Units (Switch to English Units)
Date/ Time (PDT) Wind (kph) Vis. (km) Weather Sky Cond. Temp (°C) Rel. Humidity Wind Chill (°C) Heat Index (°C) Pressure Precip. (cm)
Air Dwpt 6 hour Altimeter (hPa) Sea level (hPa) 1 hr 3 hr 6 hr
Max Min
Aug 19 10:53 Calm 12.87 Clear CLR 23 15     61%   23 1015.2 1015      
Aug 19 10:32 Calm 12.87 Partly Cloudy SCT020 21 15     68%     1015.2        
Aug 19 09:53 W 9 11.27 Cloudy OVC017 21 15     68%     1015.2 1015.1      
Aug 19 08:53 Calm 11.27 Cloudy OVC016 20 15     73%     1014.9 1014.7      
Aug 19 08:17 Calm 11.27 Cloudy OVC015 20 15     73%     1014.9        
Aug 19 07:53 Calm 11.27 Cloudy OVC014 19 15     76%     1014.9 1014.7      
Aug 19 06:53 Calm 11.27 Cloudy OVC013 19 15     76%     1014.6 1014.4      
Aug 19 05:53 Calm 16.09 Cloudy OVC013 19 15     76%     1014.2 1014.1      
Aug 19 04:53 Calm 16.09 Cloudy OVC013 19 15     78%     1013.9 1013.8      
Aug 19 03:53 WSW 8 16.09 Cloudy OVC014 19 15     78%     1013.9 1013.6      
Aug 19 03:12 WSW 8 16.09 Cloudy OVC014 19 14     75%     1013.6        
Aug 19 02:53 W 5 16.09 Mostly Cloudy BKN015 18 14     78%     1013.6 1013.3      
Aug 19 01:53 W 8 16.09 Clear CLR 19 15     78%     1013.2 1013.1      
Aug 19 00:53 WSW 5 16.09 Clear CLR 19 15     78%     1013.2 1012.9      
Aug 18 23:53 W 9 16.09 Clear CLR 19 15     78%     1013.2 1012.9      
Aug 18 22:53 WSW 9 16.09 Clear CLR 19 15     78%     1013.2 1012.9      
Aug 18 21:53 WSW 9 16.09 Clear CLR 19 15     76%     1012.9 1012.6      
Aug 18 20:53 WNW 8 16.09 Clear CLR 19 15     76%     1012.2 1011.9      
Aug 18 19:53 W 15 16.09 Clear CLR 20 16     76%     1011.9 1011.5      
Aug 18 18:53 WNW 15 16.09 Clear CLR 21 16     73%     1011.5 1011.3      
Aug 18 17:53 W 17 16.09 Clear CLR 22 15     64%   22 1011.5 1011.3      
Aug 18 16:53 W 17 16.09 Clear CLR 23 15     61%   23 1011.9 1011.6      
Aug 18 15:53 WNW 17 16.09 Clear CLR 23 15     60%   23 1012.2 1011.9      
Aug 18 14:53 W 21 16.09 Clear CLR 23 15     60%   23 1012.5 1012.5      
Aug 18 13:53 WSW 15 16.09 Clear CLR 23 15     61%   23 1013.6 1013.2      
Aug 18 13:37 W 17 16.09 Clear CLR 23 15     60%   23 1013.6        
Aug 18 13:28 11 4.02 Haze CLR 23 15     60%   23 1013.6        
Aug 18 12:53 W 15 16.09 Clear CLR 23 15     60%   23 1013.6 1013.5      
Aug 18 11:53 5 16.09 Partly Cloudy SCT026 23 14     56%   23 1013.9 1013.8      
Aug 18 10:53 WSW 5 16.09 Cloudy OVC022 21 14     68%     1014.2 1014.2      
Aug 18 09:53 8 16.09 Cloudy OVC021 21 14     68%     1013.9 1013.8      
Aug 18 08:53 SSE 8 16.09 Cloudy OVC018 20 14     70%     1013.6 1013.4      
Aug 18 07:53 SSE 8 16.09 Cloudy OVC018 20 15     73%     1013.2 1012.9      
Aug 18 06:53 SE 8 16.09 Cloudy OVC019 20 14     70%     1012.5 1012.3      
Aug 18 05:53 S 8 16.09 Cloudy OVC020 20 14     70%     1011.9 1011.7      
Aug 18 04:53 Calm 16.09 Cloudy OVC020 20 14     70%     1011.5 1011.5      
Aug 18 03:53 E 5 16.09 Cloudy OVC020 20 14     70%     1011.9 1011.7      
Aug 18 02:53 5 16.09 Cloudy OVC018 20 14     70%     1012.2 1012      
Aug 18 01:53 Calm 16.09 Cloudy OVC016 19 14     73%     1012.2 1012      
Aug 18 00:53 Calm 16.09 Cloudy OVC015 19 14     73%     1012.2 1011.9      
Aug 17 23:53 Calm 16.09 Cloudy OVC015 19 14     73%     1012.2 1012      
Aug 17 22:53 Calm 16.09 Cloudy OVC016 19 14     75%     1012.2 1011.9      
Aug 17 22:19 WNW 5 16.09 Mostly Cloudy BKN019 19 14     75%     1012.2        
Aug 17 22:03 WSW 8 16.09 Partly Cloudy SCT013 19 14     75%     1012.2        
Aug 17 21:53 W 9 16.09 Mostly Cloudy BKN013 19 14     75%     1012.2 1011.9      
Aug 17 21:49 W 8 16.09 Mostly Cloudy BKN013 19 14     73%     1012.2        
Aug 17 20:53 WSW 11 16.09 Clear CLR 19 14     75%     1011.5 1011.3      
Aug 17 19:53 WSW 15 16.09 Clear CLR 19 14     73%     1010.8 1010.8      
Aug 17 18:53 WNW 11 16.09 Partly Cloudy SCT015 20 15     73%     1010.5 1010.4      
Aug 17 17:53 WSW 18 16.09 Mostly Clear FEW017 21 15     68%     1010.8 1010.6      
Aug 17 16:53 W 17 16.09 Mostly Clear FEW019 22 15     64%   22 1010.8 1010.7      
Aug 17 15:53 WSW 17 16.09 Clear CLR 23 16     64%   23 1011.2 1011.1      
Aug 17 14:53 WSW 15 16.09 Clear CLR 23 15     60%   23 1011.9 1011.8      
Aug 17 13:53 W 15 16.09 Clear CLR 23 14     57%   23 1012.5 1012.4      
Aug 17 12:53 W 21 16.09 Clear CLR 24 14     55%   24 1012.9 1012.7      
Aug 17 12:42 WNW 15 16.09 Clear CLR 24 14     55%   24 1012.9        
Aug 17 12:34   2.41 Haze CLR 24 14     54%   24 1012.9        
Aug 17 11:53 11 16.09 Clear CLR 24 14     52%   24 1013.2 1012.9      
Aug 17 11:48   16.09 Clear CLR 23 14     57%   23 1013.2        
Aug 17 11:39 5 3.22 Haze CLR 22 14     59%   22 1013.2        
Aug 17 10:53 5 16.09 Mostly Clear FEW030 21 13     61%     1013.6 1013.3      
Aug 17 10:17 S 11 16.09 Partly Cloudy SCT025 21 13     63%     1013.6        
Aug 17 09:53 S 8 16.09 Mostly Cloudy BKN024 21 13     63%     1013.6 1013.4      
Aug 17 08:53 SSE 5 16.09 Cloudy OVC022 19 13     68%     1013.6 1013.5      
Aug 17 07:53 E 9 16.09 Cloudy OVC020 19 13     68%     1013.6 1013.4      
Aug 17 06:53 8 16.09 Cloudy OVC020 18 13     70%     1013.2 1013.1      
Aug 17 05:53 E 9 16.09 Cloudy OVC019 18 13     70%     1012.9 1012.6      
Aug 17 04:53 ESE 11 16.09 Cloudy OVC019 18 13     70%     1012.5 1012.4      
Aug 17 03:53 8 16.09 Cloudy OVC019 19 13     70%     1012.5 1012.5      
Aug 17 02:53 Calm 16.09 Cloudy OVC018 19 13     70%     1012.9 1012.6      
Aug 17 01:53 Calm 16.09 Cloudy OVC016 19 14     73%     1012.9 1012.8      
Aug 17 01:10 E 8 16.09 Cloudy OVC015 19 14     75%     1013.2        
Aug 17 00:53 E 5 16.09 Cloudy OVC013 19 14     75%     1013.2 1013.1      
Aug 16 23:53 SE 9 16.09 Cloudy OVC012 18 14     78%     1013.6 1013.3      
Aug 16 22:53 SW 5 16.09 Cloudy OVC010 18 14     81%     1013.2 1013.1      
Aug 16 21:53 WSW 11 16.09 Cloudy OVC010 18 14     78%     1013.6 1013.3      
Aug 16 20:53 WSW 13 16.09 Mostly Cloudy BKN010 18 14     78%     1012.9 1012.7      
Aug 16 19:53 WSW 18 16.09 Mostly Cloudy BKN011 19 14     75%     1012.5 1012.2      
Aug 16 18:53 WSW 17 16.09 Clear CLR 19 15     76%     1011.9 1011.6      
Aug 16 17:53 WSW 21 16.09 Clear CLR 21 15     68%     1011.9 1011.6      
Aug 16 16:53 WSW 15 16.09 Clear CLR 22 15     64%   22 1011.9 1011.7      
Aug 16 15:53 WSW 17 16.09 Clear CLR 23 15     61%   23 1012.2 1011.9      
Aug 16 14:53 W 18 16.09 Clear   24 15     57%   24 1012.5 1012.4      
Aug 16 13:53 WSW 13 16.09 Clear CLR 23 15     61%   23 1013.2 1013.2      
Aug 16 12:53 W 17 16.09 Clear CLR 23 14     57%   23 1013.9 1013.6      
Aug 16 11:53 W 15 14.48 Clear CLR 23 14     57%   23 1014.2 1014      
Aug 16 10:53 Calm 16.09 Clear CLR 23 14     56%   23 1014.2 1014.1      
Aug 16 09:53 Calm 12.87 Clear CLR 21 14     66%     1014.6 1014.4      
Aug 16 09:01 Calm 11.27 Partly Cloudy SCT013 20 14     70%     1014.6        
Aug 16 08:53 E 5 9.66 Haze BKN013 19 14     73%     1014.9 1014.6      
Aug 16 07:53 5 6.44 Haze OVC012 19 14     75%     1014.6 1014.4      
May 15 07:44 SW 8 16.09 Mostly Cloudy BKN019 15 11     78%     1017.6        
May 14 09:16 Calm 16.09 Partly Cloudy SCT019 16 11     72%     1015.6        
May 14 04:53 Calm 16.09 Clear CLR 14 11     81%     1014.6 1014.6      
May 13 13:53 5 16.09 Mostly Cloudy BKN033 19 11     59%     1016.9 1016.6      
May 13 09:53 W 11 16.09 Cloudy OVC027 16 11     70%     1018 1017.8      
May 12 09:53 SSE 9 16.09 Cloudy OVC033 16 10     67%     1015.2 1015.2      
May 12 00:53 ESE 11 16.09 Cloudy SCT028 OVC036 16 13     83%     1012.2 1012      
May 11 22:40 9 16.09 Cloudy FEW019 BKN030 OVC041 16 13     81%     1011.9        
May 11 18:53 ESE 13 16.09 Cloudy BKN021 OVC033 17 12     72%     1009.8 1009.9      
Jun 12 02:53 E 5 16.09 Clear CLR 15 11     78%     1014.9 1014.9      
Jun 11 14:53 SW 18 16.09 Partly Cloudy FEW024 SCT029 21 12     59%     1013.2 1013.1      
Jun 11 03:53 SE 9 16.09 Cloudy OVC031 17 13     80%     1011.2 1010.9 0    
Jun 11 03:44 SE 9 16.09 Cloudy OVC031 17 13     80%     1011.2   0    
Jun 10 21:53 WSW 11 16.09 Mostly Cloudy BKN025 18 13     75%     1011.9 1011.6      
Jun 10 20:15 WSW 13 16.09 Mostly Cloudy BKN025 18 13     70%     1010.8        
Jun 10 12:53 S 15 16.09 Mostly Clear FEW029 21 13     63%     1011.9 1011.8      
Jun 10 08:53 SE 11 16.09 Cloudy OVC027 18 13     75%     1012.5 1012.2      
Jun 09 18:53 WSW 24 16.09 Mostly Cloudy BKN011 BKN014 19 16     84%     1012.2 1012.1      
Jun 09 00:53 SE 5 16.09 Clear CLR 16 14     87%     1014.2 1013.9      
Jun 08 08:53 WSW 11 16.09 Cloudy BKN011 OVC015 17 15     90%     1016.3 1016.2 0    
Jun 08 07:53 W 9 16.09 Cloudy SCT008 OVC015 17 15     90%     1015.9 1015.8      
Jun 08 01:04 WSW 9 16.09 Cloudy BKN007 OVC012 16 15     93%     1015.6        
Jun 08 00:27 WSW 5 14.48 Cloudy SCT006 OVC013 16 16     97%     1015.6   0    
Jun 06 09:53 S 8 14.48 Cloudy OVC014 18 15     84%     1014.2 1014.1